Regional Weather Roundup
Issued by NWS

Home | Current Version | Previous Version | Text Only | Print | Product List | Glossary On
Versions: 1 2 3 4 5 6 7 8 9 10 11 12 13 14 15 16 17 18 19 20 21 22 23 24 25 26 27 28 29 30 31 32 33 34 35 36 37 38 39 40 41 42 43 44 45 46 47 48 49 50
000
ASUS44 KOUN 041110
RWROK

WEATHER ROUNDUP FOR OKLAHOMA
NATIONAL WEATHER SERVICE NORMAN OK
500 AM CST WED MAR 04 2015

NOTE: "FAIR" INDICATES FEW OR NO CLOUDS BELOW 12,000 FEET WITH NO
      SIGNIFICANT WEATHER AND/OR OBSTRUCTIONS TO VISIBILITY.

OKZ001>007-009>012-014-015-017-041200-
NORTHWEST OKLAHOMA AND THE PANHANDLE

CITY           SKY/WX    TMP DP  RH WIND       PRES   REMARKS
GAGE           CLOUDY    26  19  74 NE22G32   30.03R WCI  12
GUYMON         CLOUDY    25  21  85 NE13      30.04R WCI  14
ENID/WOODRING  CLOUDY    32  23  69 N25G31    30.05R WCI  19
$$

OKZ016-021>023-033>039-044-045-041200-
SOUTHWEST OKLAHOMA

CITY           SKY/WX    TMP DP  RH WIND       PRES   REMARKS
LAWTON/REGL    CLOUDY    38  31  76 N21G32    29.94R WCI  28
LAWTON/FT SILL CLOUDY    38  31  78 NE18G32   29.92R WCI  28
FREDERICK      CLOUDY    39  33  79 N15       29.91R WCI  31
CLINTON        CLOUDY    33  21  61 N22       29.98R WCI  21
HOBART         CLOUDY    35  25  66 NE23      29.97R WCI  23
ALTUS AFB      CLOUDY    37  28  70 NE17G29   29.93R WCI  28
$$

OKZ018>020-024>031-041200-
CENTRAL OKLAHOMA

CITY           SKY/WX    TMP DP  RH WIND       PRES   REMARKS
OKLAHOMA CITY  CLOUDY    36  27  69 N21G26    29.97R WCI  25
OKC/WILEY POST CLOUDY    35  25  66 N23G31    30.00R WCI  23
OKC/TINKER AFB CLOUDY    36  29  76 N15G28    29.97R WCI  26
STILLWATER     CLOUDY    34  24  67 NE16G30   30.03R WCI  24
GUTHRIE        CLOUDY    34  25  69 NE13G21   30.01R WCI  25
$$

OKZ008-013-054>072-041200-
NORTHEAST OKLAHOMA

CITY           SKY/WX    TMP DP  RH WIND       PRES   REMARKS
TULSA          LGT RAIN  34  32  92 N20G29    30.02R FOG     WCI  23
TULSA/JONES    CLOUDY    35  31  85 N14G23    30.03R WCI  26
PONCA CITY     CLOUDY    30  19  63 N24       30.08R WCI  16
BARTLESVILLE   CLOUDY    32  24  72 N22G28    30.08R WCI  19
MUSKOGEE       LGT RAIN  38  35  89 N17       29.97R FOG     WCI  28
$$

OKZ032-040>043-046>053-073>077-041200-
SOUTH CENTRAL/SOUTHEAST OKLAHOMA

CITY           SKY/WX    TMP DP  RH WIND       PRES   REMARKS
ARDMORE/DWNTWN LGT RAIN  43  43 100 N9        29.92R
MCALESTER      LGT RAIN  42  39  89 N10G22    29.93R FOG
$$



USA.gov is the U.S. government's official web portal to all federal, state and local government web resources and services.